Regional Weather Roundup
Issued by NWS

Home | Current Version | Previous Version | Graphics & Text | Print | Product List | Glossary On
Versions: 1 2 3 4 5 6 7 8 9 10 11 12 13 14 15 16 17 18 19 20 21 22 23 24 25 26 27 28 29 30 31 32 33 34 35 36 37 38 39 40 41 42 43 44 45 46 47 48 49 50
000
ASUS45 KABQ 281010
RWRNM
NEW MEXICO REGIONAL WEATHER ROUNDUP
NATIONAL WEATHER SERVICE ALBUQUERQUE NM
400 AM MDT THU MAY 28 2015

NOTE: "FAIR" MEANS FEW OR NO CLOUDS BELOW 12,000 FEET AGL WITH NO
       SIGNIFICANT WEATHER OR OBSTRUCTIONS TO VISION.

      THIS PRODUCT IS RELEASED AS TWO VERSIONS.  ONE VERSION NEAR
      THE TOP OF THE HOUR CONTAINING PRELIMINARY DATA FROM ALBUQUERQUE
      AND OTHER STATIONS.  A FINAL VERSION WITH ADDITIONAL DATA IS
      ISSUED ABOUT 10 MINUTES AFTER THE HOUR.

NMZ501-503-504-510>518-281100-
NORTHWEST PLATEAU/NORTHCENTRAL MOUNTAINS

CITY           SKY/WX    TMP DP  RH WIND       PRES   REMARKS
FARMINGTON     CLEAR     48  39  71 NE8       30.08S
LOS ALAMOS     MOCLDY    56  30  36 CALM      30.18S
SANTA FE       MOCLDY    50  34  54 N5        30.13R
TAOS           PTCLDY    43  28  56 N5        30.19R
ANGEL FIRE     FAIR      35  32  89 CALM      30.27R

$$
NMZ402-403-502-505>509-281100-
WESTCENTRAL MOUNTAINS/SOUTHWEST MOUNTAINS

CITY           SKY/WX    TMP DP  RH WIND       PRES   REMARKS
GALLUP         CLEAR     41  29  62 NE5       30.18S
GRANTS         CLEAR     43  29  59 NW7       30.19S
SILVER CITY      N/A     55  14  19 NW12      30.11S

$$
NMZ407-409-411-412-281100-
SOUTHERN DESERTS

CITY           SKY/WX    TMP DP  RH WIND       PRES   REMARKS
LORDSBURG      FAIR      55  12  18 SW6       30.05F
DEMING         CLEAR     56  16  20 SW6       30.04S
LAS CRUCES     MOCLDY    58  19  22 SW6       30.03S
HOLLOMAN AFB   PTCLDY    69  53  55 S12       29.98S
ALAMOGORDO     PTCLDY    66  50  55 S6        30.00S
T OR C         MOCLDY    64  15  15 W9        30.04R

$$
NMZ519>523-281100-
CENTRAL VALLEYS/CENTRAL HIGHLANDS

CITY           SKY/WX    TMP DP  RH WIND       PRES   REMARKS
ALBUQUERQUE    CLOUDY    55  34  45 SE6       30.09R
DOUBLE EAGLE   CLOUDY    56  37  48 CALM      30.11R
MORIARTY ARPT  FAIR      40  36  84 CALM      30.14R
CLINES CORNERS PTCLDY    51  27  39 S8        30.14S
BELEN          FAIR      56  38  49 CALM      30.08S
SOCORRO        FAIR      60  24  24 W3        30.06R

$$
NMZ524>526-539-540-281100-
SOUTHCENTRAL MOUNTAINS

CITY           SKY/WX    TMP DP  RH WIND       PRES   REMARKS
RUIDOSO        PTCLDY    52  41  66 W5        30.20S

$$
NMZ527>531-281100-
NORTHEAST HIGHLANDS/NORTHEAST PLAINS

CITY           SKY/WX    TMP DP  RH WIND       PRES   REMARKS
LAS VEGAS      PTCLDY    49  37  63 SW6       30.16S
RATON          MOCLDY    51  43  74 W7        30.13R
CLAYTON        MOCLDY    59  57  93 SW15      30.10R THUNDER

$$
NMZ532>537-281100-
EASTCENTRAL PLAINS

CITY           SKY/WX    TMP DP  RH WIND       PRES   REMARKS
TUCUMCARI      CLEAR     61  55  81 S8        30.03S
CANNON AFB     CLEAR     59  56  91 SE8       30.08S
CLOVIS AIRPORT CLEAR     55  52  88 S7          N/A

$$
NMZ028-029-538-281100-
SOUTHEAST PLAINS

CITY           SKY/WX    TMP DP  RH WIND       PRES   REMARKS
ROSWELL        CLEAR     64  58  80 S6        29.99S
ARTESIA        CLEAR     66  63  88 SE8       30.00S
CARLSBAD       PTCLDY    66  60  81 S8        29.97S
HOBBS          MOCLDY    64  64 100 CALM      30.04R FOG


$$


USA.gov is the U.S. government's official web portal to all federal, state and local government web resources and services.